TimeCST,TemperatureF,Dew PointF,Humidity,Sea Level PressureIn,VisibilityMPH,Wind Direction,Wind SpeedMPH,Gust SpeedMPH,PrecipitationIn,Events,Conditions,WindDirDegrees,DateUTC
12:53 AM,26.1,25.0,96,30.30,6.0,South,4.6,-,N/A,,Clear,180,2013-01-05 06:53:00
1:53 AM,26.1,24.1,92,30.30,6.0,South,3.5,-,N/A,,Clear,170,2013-01-05 07:53:00
2:30 AM,24.8,24.8,100,30.25,2.5,SSE,5.8,-,N/A,,Partly Cloudy,150,2013-01-05 08:30:00
2:40 AM,24.8,24.8,100,30.25,1.5,South,5.8,-,N/A,,Scattered Clouds,170,2013-01-05 08:40:00
2:46 AM,26.6,24.8,93,30.25,3.0,South,4.6,-,N/A,,Partly Cloudy,170,2013-01-05 08:46:00
2:53 AM,26.1,25.0,96,30.29,6.0,South,5.8,-,N/A,,Partly Cloudy,180,2013-01-05 08:53:00
3:53 AM,24.1,23.0,96,30.29,6.0,South,5.8,-,N/A,,Clear,180,2013-01-05 09:53:00
4:53 AM,26.1,24.1,92,30.26,10.0,WSW,6.9,-,N/A,,Clear,240,2013-01-05 10:53:00
5:53 AM,27.0,24.1,89,30.26,10.0,WSW,6.9,-,N/A,,Clear,240,2013-01-05 11:53:00
6:53 AM,26.1,24.1,92,30.27,10.0,SSW,6.9,-,N/A,,Clear,210,2013-01-05 12:53:00
7:53 AM,26.1,23.0,88,30.28,10.0,WSW,5.8,-,N/A,,Clear,250,2013-01-05 13:53:00
8:53 AM,24.1,21.0,88,30.30,9.0,NNE,3.5,-,N/A,,Clear,20,2013-01-05 14:53:00
9:53 AM,30.0,26.1,85,30.31,10.0,Calm,Calm,-,N/A,,Clear,0,2013-01-05 15:53:00
10:53 AM,33.8,30.2,87,30.29,10.0,Calm,Calm,-,N/A,,Clear,0,2013-01-05 16:53:00
11:53 AM,39.0,30.0,70,30.29,10.0,SW,8.1,-,N/A,,Clear,230,2013-01-05 17:53:00
12:53 PM,43.0,30.0,60,30.26,10.0,West,9.2,-,N/A,,Clear,270,2013-01-05 18:53:00
1:53 PM,46.9,30.9,54,30.22,10.0,Variable,5.8,-,N/A,,Clear,0,2013-01-05 19:53:00
2:53 PM,48.9,30.9,50,30.20,10.0,West,6.9,-,N/A,,Clear,260,2013-01-05 20:53:00
3:53 PM,50.0,30.0,46,30.22,10.0,West,8.1,-,N/A,,Clear,270,2013-01-05 21:53:00
4:53 PM,50.0,27.0,41,30.22,10.0,West,4.6,-,N/A,,Clear,260,2013-01-05 22:53:00
5:53 PM,46.0,30.0,54,30.24,10.0,WNW,4.6,-,N/A,,Clear,300,2013-01-05 23:53:00
6:53 PM,39.9,30.0,68,30.26,10.0,West,9.2,-,N/A,,Clear,270,2013-01-06 00:53:00
7:53 PM,37.9,30.0,73,30.29,10.0,WNW,4.6,-,N/A,,Clear,290,2013-01-06 01:53:00
8:53 PM,35.1,28.9,78,30.31,10.0,WNW,4.6,-,N/A,,Clear,290,2013-01-06 02:53:00
9:53 PM,33.1,28.9,85,30.32,10.0,NW,4.6,-,N/A,,Clear,310,2013-01-06 03:53:00
10:53 PM,30.9,28.0,89,30.34,10.0,North,6.9,-,N/A,,Clear,360,2013-01-06 04:53:00
11:53 PM,30.9,28.0,89,30.34,10.0,NNW,5.8,-,N/A,,Clear,340,2013-01-06 05:53:00